• en Belgique
  • Liste des pays
  • À 7 jours
  • Température de l'eau
  • Carte satellitaire
  • Carte météo
  • Widgets météo
  • user-avatar
    Se connecter

    Météo par heure à Barra

    Ce jour, 21 Août, Lundi

    Heure Température Précipitation Vent Pression Humidité
    00:00 +16°C° 0 mm 3 m/s 752 mmHg 82%
    01:00 +16°C° 0 mm 3 m/s 752 mmHg 84%
    02:00 +16°C° 0 mm 3 m/s 751 mmHg 83%
    03:00 +16°C° 0 mm 3 m/s 751 mmHg 83%
    04:00 +16°C° 0 mm 3 m/s 751 mmHg 86%
    05:00 +16°C° 0 mm 3 m/s 751 mmHg 85%
    06:00 +16°C° 0 mm 3 m/s 751 mmHg 84%
    07:00 +16°C° 0 mm 3 m/s 752 mmHg 83%
    08:00 +18°C° 0 mm 3 m/s 752 mmHg 72%
    09:00 +21°C° 0 mm 3 m/s 752 mmHg 61%
    10:00 +24°C° 0 mm 3 m/s 752 mmHg 49%
    11:00 +25°C° 0 mm 3 m/s 752 mmHg 46%
    12:00 +26°C° 0 mm 3 m/s 752 mmHg 44%
    13:00 +26°C° 0 mm 3 m/s 751 mmHg 42%
    14:00 +26°C° 0 mm 3 m/s 751 mmHg 44%
    15:00 +26°C° 0 mm 3 m/s 751 mmHg 45%
    16:00 +25°C° 0 mm 2 m/s 750 mmHg 48%
    17:00 +23°C° 0 mm 2 m/s 750 mmHg 56%
    18:00 +20°C° 0 mm 2 m/s 751 mmHg 64%
    19:00 +19°C° 0 mm 1 m/s 751 mmHg 72%
    20:00 +18°C° 0 mm 1 m/s 751 mmHg 75%
    21:00 +18°C° 0 mm 1 m/s 752 mmHg 79%
    22:00 +16°C° 0 mm 1 m/s 752 mmHg 81%
    23:00 +16°C° 0 mm 1 m/s 752 mmHg 83%

    Demain, 22 Août, Mardi

    Heure Température Précipitation Vent Pression Humidité
    00:00 +16°C° 0 mm 1 m/s 752 mmHg 86%
    01:00 +15°C° 0 mm 1 m/s 752 mmHg 88%
    02:00 +15°C° 0 mm 1 m/s 752 mmHg 89%
    03:00 +15°C° 0 mm 1 m/s 752 mmHg 91%
    04:00 +15°C° 0 mm 1 m/s 752 mmHg 92%
    05:00 +15°C° 0 mm 1 m/s 752 mmHg 91%
    06:00 +15°C° 0 mm 2 m/s 752 mmHg 91%
    07:00 +16°C° 0 mm 2 m/s 752 mmHg 91%
    08:00 +19°C° 0 mm 2 m/s 752 mmHg 78%
    09:00 +23°C° 0 mm 2 m/s 752 mmHg 65%
    10:00 +27°C° 0 mm 2 m/s 752 mmHg 53%
    11:00 +28°C° 0 mm 2 m/s 752 mmHg 49%
    12:00 +29°C° 0 mm 2 m/s 751 mmHg 46%
    13:00 +29°C° 0 mm 2 m/s 751 mmHg 43%
    14:00 +29°C° 0 mm 2 m/s 751 mmHg 46%
    15:00 +28°C° 0 mm 2 m/s 750 mmHg 49%
    16:00 +28°C° 0 mm 2 m/s 750 mmHg 52%
    17:00 +25°C° 0 mm 2 m/s 751 mmHg 62%
    18:00 +23°C° 0 mm 2 m/s 751 mmHg 73%
    19:00 +20°C° 0 mm 2 m/s 751 mmHg 83%
    20:00 +19°C° 0 mm 2 m/s 752 mmHg 86%
    21:00 +19°C° 0 mm 2 m/s 752 mmHg 88%
    22:00 +18°C° 0 mm 2 m/s 752 mmHg 91%
    23:00 +18°C° 0 mm 2 m/s 752 mmHg 91%

    Après-demain, 23 Août, Mercredi

    Heure Température Précipitation Vent Pression Humidité
    00:00 +19°C° 0 mm 1 m/s 752 mmHg 92%
    01:00 +18°C° 0 mm 1 m/s 752 mmHg 93%
    02:00 +18°C° 0 mm 1 m/s 752 mmHg 93%
    03:00 +18°C° 0 mm 1 m/s 752 mmHg 94%
    04:00 +18°C° 0 mm 1 m/s 752 mmHg 94%
    05:00 +18°C° 0 mm 1 m/s 752 mmHg 95%
    06:00 +18°C° 0 mm 1 m/s 752 mmHg 96%
    07:00 +19°C° 0 mm 1 m/s 753 mmHg 96%
    08:00 +21°C° 0 mm 1 m/s 753 mmHg 84%
    09:00 +24°C° 0 mm 2 m/s 753 mmHg 72%
    10:00 +27°C° 0 mm 2 m/s 753 mmHg 60%
    11:00 +27°C° 0 mm 2 m/s 752 mmHg 57%
    12:00 +28°C° 0 mm 2 m/s 752 mmHg 53%
    13:00 +29°C° 0 mm 3 m/s 751 mmHg 49%
    14:00 +29°C° 0 mm 3 m/s 751 mmHg 49%
    15:00 +28°C° 0 mm 3 m/s 750 mmHg 50%
    16:00 +28°C° 0 mm 3 m/s 750 mmHg 51%
    17:00 +25°C° 0 mm 2 m/s 750 mmHg 62%
    18:00 +23°C° 0 mm 2 m/s 751 mmHg 72%
    19:00 +20°C° 0 mm 2 m/s 751 mmHg 83%
    20:00 +19°C° 0 mm 2 m/s 751 mmHg 86%
    21:00 +19°C° 0 mm 2 m/s 752 mmHg 90%
    22:00 +18°C° 0 mm 2 m/s 752 mmHg 93%
    23:00 +18°C° 0 mm 2 m/s 752 mmHg 94%

    24 Août, Jeudi

    Heure Température Précipitation Vent Pression Humidité
    00:00 +18°C° 0 mm 2 m/s 751 mmHg 95%
    01:00 +18°C° 0 mm 2 m/s 751 mmHg 96%
    02:00 +18°C° 0 mm 2 m/s 751 mmHg 96%
    03:00 +19°C° 0 mm 1 m/s 750 mmHg 96%
    04:00 +19°C° 0 mm 1 m/s 750 mmHg 96%
    05:00 +19°C° 0 mm 1 m/s 750 mmHg 96%
    06:00 +19°C° 0 mm 1 m/s 751 mmHg 96%
    07:00 +19°C° 0 mm 1 m/s 751 mmHg 96%
    08:00 +22°C° 0 mm 1 m/s 751 mmHg 83%
    09:00 +25°C° 0 mm 1 m/s 751 mmHg 69%
    10:00 +27°C° 0 mm 1 m/s 751 mmHg 55%
    11:00 +28°C° 0 mm 2 m/s 751 mmHg 51%
    12:00 +29°C° 0 mm 2 m/s 750 mmHg 47%
    13:00 +30°C° 0 mm 2 m/s 749 mmHg 43%
    14:00 +30°C° 0 mm 2 m/s 749 mmHg 45%
    15:00 +29°C° 0 mm 2 m/s 748 mmHg 47%
    16:00 +29°C° 0 mm 2 m/s 748 mmHg 49%
    17:00 +26°C° 0 mm 2 m/s 748 mmHg 60%
    18:00 +24°C° 0 mm 2 m/s 748 mmHg 71%
    19:00 +20°C° 0 mm 2 m/s 749 mmHg 83%
    20:00 +21°C° 0 mm 1 m/s 749 mmHg 85%
    21:00 +20°C° 0 mm 1 m/s 750 mmHg 88%
    22:00 +20°C° 0 mm 1 m/s 750 mmHg 91%
    23:00 +20°C° 0 mm 1 m/s 750 mmHg 91%

    25 Août, Vendredi

    Heure Température Précipitation Vent Pression Humidité
    00:00 +19°C° 0 mm 1 m/s 749 mmHg 90%
    01:00 +19°C° 0 mm 1 m/s 749 mmHg 90%
    02:00 +19°C° 0 mm 1 m/s 749 mmHg 87%
    03:00 +19°C° 0 mm 1 m/s 749 mmHg 85%
    04:00 +18°C° 0 mm 2 m/s 749 mmHg 83%
    05:00 +18°C° 0 mm 2 m/s 749 mmHg 75%
    06:00 +17°C° 0 mm 2 m/s 750 mmHg 66%
    07:00 +17°C° 0 mm 2 m/s 750 mmHg 57%
    08:00 +20°C° 0 mm 3 m/s 751 mmHg 48%
    09:00 +24°C° 0 mm 3 m/s 751 mmHg 38%
    10:00 +26°C° 0 mm 4 m/s 751 mmHg 28%
    11:00 +28°C° 0 mm 4 m/s 750 mmHg 28%
    12:00 +29°C° 0 mm 4 m/s 750 mmHg 27%
    13:00 +30°C° 0 mm 4 m/s 749 mmHg 26%
    14:00 +30°C° 0 mm 3 m/s 749 mmHg 27%
    15:00 +29°C° 0 mm 3 m/s 748 mmHg 27%
    16:00 +29°C° 0 mm 3 m/s 748 mmHg 28%
    17:00 +26°C° 0 mm 2 m/s 748 mmHg 36%
    18:00 +24°C° 0 mm 2 m/s 749 mmHg 44%
    19:00 +21°C° 0 mm 1 m/s 749 mmHg 52%
    20:00 +20°C° 0 mm 1 m/s 750 mmHg 51%
    21:00 +20°C° 0 mm 1 m/s 750 mmHg 50%
    22:00 +18°C° 0 mm 2 m/s 751 mmHg 49%
    23:00 +18°C° 0 mm 2 m/s 751 mmHg 49%

    26 Août, Samedi

    Heure Température Précipitation Vent Pression Humidité
    00:00 +18°C° 0 mm 2 m/s 750 mmHg 49%
    01:00 +17°C° 0 mm 3 m/s 750 mmHg 50%
    02:00 +17°C° 0,1 mm 3 m/s 750 mmHg 58%
    03:00 +17°C° 0,1 mm 3 m/s 750 mmHg 66%
    04:00 +17°C° 0,1 mm 3 m/s 750 mmHg 75%
    05:00 +17°C° 0,1 mm 3 m/s 750 mmHg 79%
    06:00 +17°C° 0,1 mm 4 m/s 751 mmHg 83%
    07:00 +17°C° 0,1 mm 4 m/s 751 mmHg 87%
    08:00 +20°C° 0 mm 4 m/s 752 mmHg 77%
    09:00 +22°C° 0 mm 5 m/s 752 mmHg 67%
    10:00 +25°C° 0 mm 5 m/s 752 mmHg 57%
    11:00 +26°C° 0 mm 5 m/s 752 mmHg 54%
    12:00 +26°C° 0 mm 5 m/s 751 mmHg 51%
    13:00 +27°C° 0 mm 5 m/s 750 mmHg 48%
    14:00 +27°C° 0 mm 5 m/s 750 mmHg 50%
    15:00 +26°C° 0 mm 5 m/s 750 mmHg 52%
    16:00 +26°C° 0 mm 4 m/s 750 mmHg 54%
    17:00 +23°C° 0 mm 4 m/s 750 mmHg 62%
    18:00 +21°C° 0 mm 3 m/s 751 mmHg 70%
    19:00 +19°C° 0 mm 3 m/s 751 mmHg 77%
    20:00 +18°C° 0 mm 3 m/s 751 mmHg 79%
    21:00 +18°C° 0 mm 3 m/s 752 mmHg 80%
    22:00 +17°C° 0 mm 3 m/s 752 mmHg 82%
    23:00 +17°C° 0 mm 3 m/s 752 mmHg 84%
    Voir plus